sat.trackr.live / text

‹ back to catalog

STARLINK-32339

NORAD 61640 · 2024-191V

PAYLOAD ACTIVE UNKNOWN

§ Identity

Operator
Country
US
Launch date
2024-10-23
Launch site
AFETR
Launch vehicle
Mass (kg)
RCS (m²)

Purposes: comms

External: N2YO · Heavens-Above · Gunter

§ Orbital elements

Epoch: 2026-09-20T00:54:48.205152Z

Period
94.27 min
Inclination
43.0034°
Eccentricity
0.0001004
Mean motion
15.27573000 rev/d
Perigee alt
482.4 km
Apogee alt
483.8 km
Semi-major
6,861.2 km
B*
-1.2222e-5
RAAN
136.5675°
Arg perigee
275.7512°
Mean anomaly
84.3225°
Rev number
10,725

§ Raw data

STARLINK-323391 61640U 24191V   26263.03805793 -.00000598  00000+0 -12222-4 0  99942 61640  43.0034 136.5675 0001004 275.7512  84.3225 15.27573000107259

JSON: /api/v1/satellites/61640 · /tle

For live sub-satellite position, see the globe view (requires WebGL).

§ Visibility from observer

Set your observer location to see the next 7 days of passes ≥ 10°. The values pass through the URL so the page stays shareable.

No JS? Fill the form by hand. The geolocation button needs JavaScript.